Location: Slanting_Bridge
(35.6330°N, 80.9830°W)
Time: 06:21:31
(UTC-04:00)

Hamsat - Visible Passes

Search period start: 21 October 2014 00:00
Search period end: 31 October 2014 00:00
Orbit: 592 x 629 km, 97.6° (Epoch: 20 October)

Date Brightness Start Highest point End Pass type
(mag) Time Alt. Az. Time Alt. Az. Time Alt. Az.
21 Oct ? 07:02:16 10° NNE 07:06:25 62° E 07:10:34 10° S visible
21 Oct ? 19:29:36 10° SW 19:32:33 18° W 19:35:30 10° NW visible
22 Oct ? 19:45:14 10° WSW 19:47:00 12° W 19:48:45 10° WNW visible
24 Oct ? 06:10:55 10° ENE 06:13:16 15° E 06:15:37 10° SE visible
25 Oct ? 06:24:26 10° NE 06:27:41 22° E 06:30:56 10° SE visible
26 Oct ? 06:38:17 10° NNE 06:42:04 32° E 06:45:51 10° SSE visible
26 Oct ? 19:04:17 10° SSW 19:08:07 34° W 19:11:57 10° NNW visible
27 Oct ? 06:52:20 10° NNE 06:56:25 48° E 07:00:30 10° S visible
27 Oct ? 19:19:07 10° SSW 19:22:29 23° W 19:25:51 10° NW visible
28 Oct ? 07:06:30 10° NNE 07:10:43 73° ESE 07:14:57 10° S visible
28 Oct ? 19:34:18 10° SW 19:36:52 16° W 19:39:26 10° NW visible
29 Oct ? 19:50:35 10° W 19:51:16 10° W 19:51:58 10° W visible
30 Oct ? 06:01:44 10° ENE 06:03:05 11° E 06:04:26 10° ESE visible
